Figari, France

6:35 PM CET on November 23, 2017 (GMT +0100)
Figari-Sud Corse

Weather History for LFKF - December, 2012

Change the Weather History Date:

Friday, December 7, 2012

  Actual Average Record
Temperature  
Mean Temperature 45 °F -  
Max Temperature 57 °F 55 °F 69 °F (2010)
Min Temperature 33 °F 43 °F 30 °F (2013)
Degree Days  
Heating Degree Days 20    
Moisture  
Dew Point 41 °F    
Average Humidity 74    
Maximum Humidity 93    
Minimum Humidity 58    
Precipitation  
Precipitation 0.00 in - - ()
Sea Level Pressure  
Sea Level Pressure 29.84 in    
Wind  
Wind Speed 7 mph ()    
Max Wind Speed 22 mph    
Max Gust Speed 36 mph    
Visibility 6.0 miles    
Events Rain    
Averages and records for this station are not official NWS values.
T = Trace of Precipitation, MM = Missing Value Source: Averaged Metar Reports

Daily Weather History Graph

Daily Weather History Graph

Search for Another Location

Airport or City:

Trip Planner

Search our weather history database for the weather conditions in past years. The results will help you decide how hot, cold, wet, or windy it might be!

Date:

Astronomy

Dec. 07, 2012 Rise Set
Actual Time 7:36 AM CET 4:53 PM CET
Civil Twilight 7:05 AM CET 5:24 PM CET
Nautical Twilight 6:30 AM CET 5:59 PM CET
Astronomical Twilight 5:57 AM CET 6:33 PM CET
Moon 12:34 AM CET (12/7) 12:46 PM CET (12/7)
Length of Visible Light 10h 19m
Length of Day
9h 16m
Last Quarter, 41% of the Moon is Illuminated
Dec 7
Last Quarter
Dec 13
New
Dec 20
First Quarter
Dec 28
Full
Jan 5
Last Quarter

Hourly Weather History & Observations

Time (CET) Temp. Windchill Dew Point Humidity Pressure Visibility Wind Dir Wind Speed Gust Speed Precip Events Conditions
12:00 AM 33.8 °F - 30.2 °F 87% 29.95 in 6.2 mi Calm Calm - N/A   Unknown
12:30 AM 33.8 °F - 32.0 °F 93% 29.95 in 6.2 mi Calm Calm - N/A   Scattered Clouds
1:00 AM 33.8 °F - 32.0 °F 93% 29.95 in 6.2 mi Variable 1.2 mph - N/A   Unknown
1:30 AM 33.8 °F - 32.0 °F 93% 29.95 in 6.2 mi NNE 2.3 mph - N/A   Mostly Cloudy
2:00 AM 35.6 °F - 33.8 °F 93% 29.95 in 6.2 mi NNE 2.3 mph - N/A   Mostly Cloudy
2:30 AM 33.8 °F - 32.0 °F 93% 29.95 in 6.2 mi Calm Calm - N/A   Partly Cloudy
3:00 AM 33.8 °F 30.8 °F 30.2 °F 87% 29.95 in 6.2 mi SW 3.5 mph - N/A   Unknown
3:30 AM 42.8 °F 38.6 °F 39.2 °F 87% 29.95 in 6.2 mi SW 6.9 mph - N/A   Partly Cloudy
4:00 AM 42.8 °F 38.6 °F 39.2 °F 87% 29.92 in 6.2 mi SW 6.9 mph - N/A   Partly Cloudy
4:30 AM 44.6 °F 41.4 °F 37.4 °F 76% 29.92 in 6.2 mi SW 5.8 mph - N/A   Partly Cloudy
5:00 AM 44.6 °F 40.7 °F 37.4 °F 76% 29.92 in 6.2 mi SW 6.9 mph - N/A   Scattered Clouds
5:30 AM 44.6 °F 40.7 °F 35.6 °F 71% 29.92 in 6.2 mi SW 6.9 mph - N/A   Unknown
6:00 AM 44.6 °F 40.7 °F 35.6 °F 71% 29.95 in 6.2 mi SW 6.9 mph - N/A   Unknown
6:30 AM 46.4 °F 43.5 °F 35.6 °F 66% 29.92 in 6.2 mi SW 5.8 mph - N/A   Partly Cloudy
7:00 AM 48.2 °F - 35.6 °F 62% 29.92 in 6.2 mi West 5.8 mph - N/A   Mostly Cloudy
7:30 AM 48.2 °F - 35.6 °F 62% 29.92 in 6.2 mi West 5.8 mph - N/A   Overcast
8:00 AM 50.0 °F - 35.6 °F 58% 29.92 in 6.2 mi West 6.9 mph - N/A   Mostly Cloudy
8:30 AM 50.0 °F - 37.4 °F 62% 29.92 in 6.2 mi WSW 3.5 mph - N/A   Mostly Cloudy
9:00 AM 50.0 °F - 39.2 °F 66% 29.92 in 6.2 mi WSW 6.9 mph - N/A   Mostly Cloudy
9:30 AM 51.8 °F - 41.0 °F 67% 29.92 in 6.2 mi West 11.5 mph - N/A   Partly Cloudy
10:00 AM 55.4 °F - 41.0 °F 58% 29.92 in 6.2 mi West 16.1 mph 29.9 mph N/A   Scattered Clouds
10:30 AM 55.4 °F - 42.8 °F 63% 29.92 in 6.2 mi West 15.0 mph - N/A   Mostly Cloudy
11:00 AM 53.6 °F - 42.8 °F 67% 29.92 in 6.2 mi West 10.4 mph - N/A   Mostly Cloudy
11:30 AM 53.6 °F - 42.8 °F 67% 29.89 in 6.2 mi West 9.2 mph - N/A   Mostly Cloudy
12:00 PM 55.4 °F - 44.6 °F 67% 29.89 in 6.2 mi West 9.2 mph - N/A   Mostly Cloudy
12:30 PM 57.2 °F - 44.6 °F 63% 29.86 in 6.2 mi WSW 16.1 mph - N/A   Overcast
1:00 PM 55.4 °F - 44.6 °F 67% 29.86 in 6.2 mi SW 16.1 mph - N/A Rain Light Rain
1:30 PM 51.8 °F - 44.6 °F 76% 29.83 in 5.6 mi West 13.8 mph 26.5 mph N/A Rain Light Rain
2:00 PM 53.6 °F - 44.6 °F 72% 29.83 in 6.2 mi West 13.8 mph - N/A   Scattered Clouds
2:30 PM 53.6 °F - 44.6 °F 72% 29.80 in 6.2 mi West 12.7 mph - N/A   Mostly Cloudy
3:00 PM 55.4 °F - 44.6 °F 67% 29.80 in 6.2 mi West 13.8 mph - N/A   Mostly Cloudy
3:30 PM 55.4 °F - 44.6 °F 67% 29.80 in 6.2 mi West 13.8 mph - N/A   Mostly Cloudy
4:00 PM 53.6 °F - 44.6 °F 72% 29.77 in 6.2 mi West 9.2 mph - N/A   Overcast
4:30 PM 51.8 °F - 46.4 °F 82% 29.77 in 6.2 mi West 11.5 mph - N/A Rain Light Rain
5:00 PM 51.8 °F - 46.4 °F 82% 29.74 in 6.2 mi WSW 9.2 mph - N/A   Overcast
5:30 PM 51.8 °F - 46.4 °F 82% 29.74 in 6.2 mi WSW 12.7 mph - N/A   Mostly Cloudy
6:00 PM 53.6 °F - 44.6 °F 72% 29.71 in 6.2 mi WSW 15.0 mph - N/A   Mostly Cloudy
6:30 PM 55.4 °F - 44.6 °F 67% 29.71 in 6.2 mi WSW 18.4 mph - N/A   Overcast
7:00 PM 55.4 °F - 44.6 °F 67% 29.71 in 6.2 mi WSW 16.1 mph 27.6 mph N/A   Mostly Cloudy
7:30 PM 55.4 °F - 44.6 °F 67% 29.68 in 6.2 mi WSW 16.1 mph - N/A   Overcast
8:00 PM 57.2 °F - 44.6 °F 63% 29.68 in 6.2 mi WSW 18.4 mph - N/A   Mostly Cloudy
8:30 PM 55.4 °F - 46.4 °F 72% 29.68 in 6.2 mi WSW 19.6 mph - N/A Rain Light Rain
9:00 PM 53.6 °F - 50.0 °F 88% 29.68 in 5.0 mi WSW 15.0 mph - N/A Rain Rain
9:30 PM 51.8 °F - 48.2 °F 88% 29.65 in 1.4 mi West 19.6 mph 35.7 mph N/A Rain Heavy Rain
10:00 PM 51.8 °F - 46.4 °F 82% 29.65 in 5.6 mi West 21.9 mph 34.5 mph N/A Rain Rain
10:30 PM 50.0 °F - 42.8 °F 76% 29.65 in 2.8 mi WNW 17.3 mph 29.9 mph N/A Rain Rain
11:00 PM 51.8 °F - 44.6 °F 76% 29.65 in 6.2 mi West 15.0 mph - N/A   Mostly Cloudy
11:30 PM 53.6 °F - 44.6 °F 72% 29.65 in 6.2 mi West 20.7 mph - N/A   Mostly Cloudy